Location: *
(46.1200°N, 11.2700°E)
Time: 01:04:13
(UTC+00:00)

Cosmos 1666 - Pass Details

Date: 02 March 2021
Orbit: 497 x 518 km, 82.5° (Epoch: 18 April)

Event Time Altitude Azimuth Distance (km) Brightness Sun altitude
Rises 18:45:08 0° 180° (S) 2,571 6.1 -18.5°
Reaches altitude 10° 18:47:15 10° 177° (S) 1,694 5.2 -18.8°
Maximum altitude 18:50:55 63° 96° (E) 561 2.5 -19.5°
Drops below altitude 10° 18:54:37 10° 15° (NNE) 1,714 5.3 -20.1°
Sets 18:56:46 0° 12° (NNE) 2,606 6.3 -20.4°
